Regional Weather Roundup
Issued by NWS

Home | Current Version | Previous Version | Graphics & Text | Print | Product List | Glossary On
Versions: 1 2 3 4 5 6 7 8 9 10 11 12 13 14 15 16 17 18 19 20 21 22 23 24 25 26 27 28 29 30 31 32 33 34 35 36 37 38 39 40 41 42 43 44 45 46 47 48 49 50
908
ASUS43 KLOT 110007
RWRIL

ILLINOIS REGIONAL WEATHER ROUNDUP
NATIONAL WEATHER SERVICE CHICAGO/ROMEOVILLE IL
600 PM CST SAT DEC 10 2016

NOTE: "FAIR" INDICATES FEW OR NO CLOUDS BELOW 12,000 FEET WITH NO
SIGNIFICANT WEATHER AND/OR OBSTRUCTIONS TO VISIBILITY.

* THESE STATIONS ARE NOT UNDER NWS QUALITY CONTROL. THEY ALSO MAY NOT
  REPORT WEATHER SUCH AS PRECIPITATION OR FOG.

ILZ001-002-007-009-015-016-024-110100-
NORTHWEST ILLINOIS

CITY           SKY/WX    TMP DP  RH WIND       PRES   REMARKS
MOLINE         CLOUDY    23  19  85 E10       30.32F WCI  12
6HR MIN TEMP:  23; 6HR MAX TEMP:  27; 6HR PCP:  0.08;

STERLING*      LGT SNOW  22  20  92 SE6       30.36F FOG     WCI  14
SAVANNA*       LGT SNOW  22  20  93 SE5       30.34F WCI  16
$$

ILZ003-004-008-010-011-017-018-110100-
NORTH CENTRAL ILLINOIS

CITY           SKY/WX    TMP DP  RH WIND       PRES   REMARKS
ROCKFORD       LGT SNOW  21  18  88 SE7       30.38F FOG     WCI  12
6HR MIN TEMP:  21; 6HR MAX TEMP:  23; 6HR PCP:  0.04;

FREEPORT*      LGT SNOW  21  19  91 SE7       30.36F WCI  12
ROCHELLE*      LGT SNOW  21  20  94 SE5       30.37F WCI  15
DE KALB*       LGT SNOW  21  19  93 SE5       30.37F WCI  15
$$

ILZ005-006-012>014-019>023-110100-
NORTHEAST ILLINOIS

CITY           SKY/WX    TMP DP  RH WIND       PRES   REMARKS
CHICAGO-OHARE  LGT SNOW  21  18  88 S5        30.40F FOG     WCI  15
6HR MIN TEMP:  21; 6HR MAX TEMP:  23; 6HR PCP:  0.02;

CHICAGO-MIDWAY LGT SNOW  24  18  77 S6        30.41F FOG     WCI  17
6HR MIN TEMP:  23; 6HR MAX TEMP:  25; 6HR PCP: TRACE;

AURORA         LGT SNOW  23  19  85 SE6       30.39F FOG     WCI  16
6HR MIN TEMP:  23; 6HR MAX TEMP:  25; 6HR PCP: TRACE;

LANSING*       LGT SNOW  23  20  91 S5        30.42F WCI  16
JOLIET*        LGT SNOW  24  22  92 SE3       30.41F
WAUKEGAN       LGT SNOW  21  18  88 SW6       30.39F FOG     WCI  13
6HR MIN TEMP:  21; 6HR MAX TEMP:  24; 6HR PCP: TRACE;

DUPAGE AIRPORT LGT SNOW  22  18  85 SE5       30.38F FOG     WCI  16
6HR MIN TEMP:  21; 6HR MAX TEMP:  23; 6HR PCP:  0.01;

KANKAKEE*      LGT SNOW  24  21  89 CALM      30.42F
WHEELING       LGT SNOW  22  18  85 S7        30.41F FOG     WCI  13
6HR MIN TEMP:  22; 6HR MAX TEMP:  23; 6HR PCP: TRACE;

MORRIS*        LGT SNOW  23  21  93 CALM      30.39F
ROMEOVILLE*    LGT SNOW  22  22 100 S6        30.40F WCI  15
NORTHERLY ISL    N/A     23  19  85 S7          N/A  WCI  15
$$

LMZ740>746-110100-
SOUTHERN LAKE MICHIGAN

STATION/POSITION SKY/WX   TEMP    WIND        PRES    VSBY  WAVE
                          AIR SEA DIR/SP/G                  HT/PER
                          (F)     (DEG/KT/KT) (MB)    (MI)  (FT/S)
BURNHAM HARBOR             23     200/  4/  8   N/A
CALUMET HARBOR             23     200/  6/  7 1029.3F
BURNS HARBOR               24     210/  8/  9 1030.5F
$$

ILZ025>027-034>036-040-047-049-050-058-095>099-110100-
WEST-CENTRAL ILLINOIS

CITY           SKY/WX    TMP DP  RH WIND       PRES   REMARKS
QUINCY         CLOUDY    30  17  58 SE14      30.26F WCI  19
GALESBURG*     FLURRIES  23  20  90 E7        30.31F WCI  14
MACOMB*        CLOUDY    27  17  64 SE12      30.32F WCI  17
JACKSONVILLE*  CLOUDY    30  19  64 SE14      30.31F WCI  19
PITTSFIELD*    CLOUDY    31  20  64 SE12      30.29F WCI  22
$$

ILZ028>032-037-038-041>044-048-051>054-059>061-110100-
CENTRAL ILLINOIS

CITY           SKY/WX    TMP DP  RH WIND       PRES   REMARKS
PONTIAC        LGT SNOW  25  25  98 S9        30.40F WCI  16
BLOOMINGTON    FLURRIES  24  20  84 SE8       30.37F WCI  15
DECATUR        CLOUDY    28  17  63 SE10      30.38F WCI  19
PEORIA         CLOUDY    24  20  84 E8        30.36F WCI  15
6HR MIN TEMP:  23; 6HR MAX TEMP:  27; 6HR PCP:  0.02;

LACON*         FLURRIES  23  21  91 SE8       30.35F WCI  14
LINCOLN*       CLOUDY    29  19  66 SE7       30.37S WCI  22
SPRINGFIELD    CLOUDY    31  18  58 SE12      30.36S WCI  22
6HR MIN TEMP:  28; 6HR MAX TEMP:  31;

TAYLORVILLE    CLOUDY    29  19  65 CALM      30.36F
6HR MIN TEMP:  27; 6HR MAX TEMP:  29;

$$

ILZ033-039-045-046-055>057-062-063-110100-
EAST-CENTRAL ILLINOIS

CITY           SKY/WX    TMP DP  RH WIND       PRES   REMARKS
CHAMPAIGN      CLOUDY    28  17  63 SE10      30.40F WCI  19
RANTOUL*       CLOUDY    27  24  87 SE5       30.40F WCI  22
MATTOON        CLOUDY    28  17  63 SE7       30.39F WCI  21
PARIS*         CLOUDY    28  21  75 SE9       30.43F WCI  19
$$

ILZ079-100>102-110100-
SOUTHWEST ILLINOIS

CITY           SKY/WX    TMP DP  RH WIND       PRES   REMARKS
ALTON          CLOUDY    32  19  59 SE12      30.35F WCI  23
BELLEVILLE     CLOUDY    33  21  62 SE5       30.36S WCI  28
CAHOKIA*       CLOUDY    34  20  56 SE6       30.36S WCI  29
SPARTA*        CLOUDY    33  19  57 SE7       30.37F WCI  27
$$

ILZ064>066-069>071-074>076-080>082-084>086-088>090-092>094-110100-
SOUTH-CENTRAL ILLINOIS

CITY           SKY/WX    TMP DP  RH WIND       PRES   REMARKS
CARBONDALE     CLOUDY    34  19  54 SE8       30.38F WCI  27
6HR MIN TEMP:  32; 6HR MAX TEMP:  36;

CAIRO*         CLOUDY    37  20  50 S6        30.39F WCI  32
EFFINGHAM*     CLOUDY    31  21  67 E8        30.41F WCI  23
MARION         CLOUDY    36  18  48 SE12      30.40F WCI  27
CENTRALIA*     CLOUDY    33  19  57 SE8       30.38S WCI  26
SALEM*         CLOUDY    34  20  57 SE6       30.38F WCI  29
METROPOLIS*    CLOUDY    36  17  46 E7        30.39F WCI  30
$$

ILZ067-068-072-073-078-083-087-091-110100-
SOUTHEAST ILLINOIS

CITY           SKY/WX    TMP DP  RH WIND       PRES   REMARKS
LAWRENCEVILLE  MOCLDY    30  18  60 SE7       30.43F WCI  23
FLORA*         CLOUDY    33  21  62 SE8       30.41F WCI  26
FAIRFIELD*     CLOUDY    32  21  64 CALM      30.40F
HARRISBURG*    CLOUDY    33  22  62 SE6       30.40F WCI  28
ROBINSON*      CLOUDY    29  18  63 SE6       30.44F WCI  23
CARMI*         CLOUDY    31  22  70 SE7       30.41F WCI  24
$$

ABBREVIATIONS USED IN REMARKS
   TC - TEMPERATURE IN CELSIUS
  WCI - WIND CHILL INDEX
   HX - HEAT INDEX
  VSB - VISIBILITY
$$





USA.gov is the U.S. government's official web portal to all federal, state and local government web resources and services.